Location: ??????
(41.3164°N, 22.6615°E)
Time: 17:24:10
(UTC+00:00)

CAS-4A - Pass Details

Date: 05 July 2022
Orbit: 521 x 537 km, 43.0° (Epoch: 11 August)

Event Time Altitude Azimuth Distance (km) Brightness Sun altitude
Exits shadow 23:23:33 32° 78° (ENE) 905 ? -25.0°
Drops below altitude 10° 23:25:48 10° 76° (ENE) 1,757 ? -24.9°
Sets 23:28:02 0° 76° (ENE) 2,649 ? -24.8°
